DW8052 Weather Reports


time (UTC)temp
C
wind
direction
speed
KPH
gust
KPH
rain 1hr
cm
rain 24hr
cm
rain mn
cm
humidity
%
barometer
mb
20260506175204 14 251 12.9 16.1 0.00 0.00 0.00 64 1013.0
20260506174704 14 241 8.0 16.1 0.00 0.00 0.00 64 1013.0
20260506174204 14 241 6.4 9.7 0.00 0.00 0.00 64 1012.8
20260506173704 14 252 8.0 14.5 0.00 0.00 0.00 63 1012.8
20260506173204 14 268 9.7 16.1 0.00 0.00 0.00 63 1012.9
20260506172704 14 243 8.0 12.9 0.00 0.00 0.00 64 1012.9
20260506172204 14 218 11.3 24.1 0.00 0.00 0.00 63 1013.3
20260506171704 14 251 16.1 24.1 0.00 0.00 0.00 64 1013.1
20260506171204 14 215 14.5 24.1 0.00 0.00 0.00 64 1013.0
20260506170204 14 254 20.9 24.1 0.00 0.00 0.00 65 1013.2
20260506165707 14 262 19.3 25.7 0.00 0.00 0.00 66 1013.1
20260506165207 14 250 16.1 22.5 0.00 0.00 0.00 66 1013.2
20260506164707 14 262 16.1 22.5 0.00 0.00 0.00 66 1013.2
20260506163707 14 257 12.9 20.9 0.00 0.00 0.00 66 1013.2
20260506163207 14 267 17.7 27.4 0.00 0.00 0.00 65 1013.4
20260506162207 14 266 14.5 24.1 0.00 0.00 0.00 66 1013.3
20260506161707 14 267 19.3 29.0 0.00 0.00 0.00 66 1013.3
20260506161206 14 263 20.9 32.2 0.00 0.00 0.00 67 1013.6
20260506160707 14 258 20.9 32.2 0.00 0.00 0.00 68 1013.6
20260506155207 14 263 22.5 32.2 0.00 0.00 0.00 70 1013.6
20260506154206 14 250 20.9 27.4 0.00 0.00 0.00 72 1013.6
20260506153706 14 257 20.9 29.0 0.00 0.00 0.00 73 1013.7
20260506153206 15 256 12.9 19.3 0.00 0.00 0.00 74 1013.6
20260506152706 15 254 12.9 19.3 0.00 0.00 0.00 75 1013.7
20260506152206 15 251 16.1 20.9 0.00 0.00 0.00 75 1013.7
20260506151206 15 263 11.3 19.3 0.00 0.00 0.00 77 1013.7
20260506150706 15 262 9.7 16.1 0.00 0.00 0.00 78 1013.8
20260506150206 15 257 9.7 12.9 0.00 0.00 0.00 78 1013.9
20260506145706 15 269 9.7 14.5 0.00 0.00 0.00 79 1014.1
20260506145206 15 277 11.3 14.5 0.00 0.00 0.00 80 1014.1
20260506144707 15 278 12.9 14.5 0.00 0.00 0.00 81 1014.0
20260506144207 15 289 12.9 16.1 0.00 0.00 0.00 81 1014.1
20260506143706 15 291 14.5 16.1 0.00 0.00 0.00 82 1014.0
20260506143206 15 289 14.5 19.3 0.00 0.00 0.00 83 1014.0
20260506142706 15 287 14.5 19.3 0.00 0.00 0.00 83 1014.2
20260506142206 15 287 14.5 19.3 0.00 0.00 0.00 83 1014.3
20260506140706 16 282 14.5 16.1 0.00 0.00 0.00 83 1014.4
20260506140206 16 277 11.3 14.5 0.00 0.00 0.00 83 1014.5
20260506135706 16 276 12.9 16.1 0.00 0.00 0.00 83 1014.4
20260506135206 16 288 12.9 14.5 0.00 0.00 0.00 82 1014.3
20260506134706 16 288 11.3 16.1 0.00 0.00 0.00 82 1014.3
20260506134207 16 278 11.3 16.1 0.00 0.00 0.00 82 1014.4
20260506133707 16 290 11.3 19.3 0.00 0.00 0.00 82 1014.2
20260506133206 16 298 14.5 19.3 0.00 0.00 0.00 82 1014.3
20260506132706 16 300 14.5 19.3 0.00 0.00 0.00 82 1014.3
20260506131706 16 293 11.3 16.1 0.00 0.00 0.00 82 1014.3
20260506130707 16 294 11.3 16.1 0.00 0.00 0.00 82 1014.4
20260506130206 16 296 14.5 16.1 0.00 0.00 0.00 82 1014.5
20260506125206 16 293 14.5 19.3 0.00 0.00 0.00 82 1014.6
20260506124706 16 291 14.5 19.3 0.00 0.00 0.00 82 1014.7
20260506124206 16 287 14.5 19.3 0.00 0.00 0.00 82 1014.8
20260506123706 16 287 16.1 19.3 0.00 0.00 0.00 82 1014.9
20260506123206 16 294 14.5 19.3 0.00 0.00 0.00 82 1015.1
20260506122706 16 295 16.1 19.3 0.00 0.00 0.00 81 1015.1
20260506122205 16 298 14.5 19.3 0.00 0.00 0.00 81 1015.1
20260506121706 16 292 14.5 19.3 0.00 0.00 0.00 81 1015.2
20260506121206 16 296 14.5 19.3 0.00 0.00 0.00 81 1015.3
20260506120707 17 295 14.5 19.3 0.00 0.00 0.00 81 1015.3
20260506120206 17 298 14.5 19.3 0.00 0.00 0.00 81 1015.4
20260506115706 17 296 16.1 19.3 0.00 0.00 0.00 81 1015.4
20260506115206 17 299 16.1 19.3 0.00 0.00 0.00 81 1015.7
20260506114706 17 301 14.5 19.3 0.00 0.00 0.00 81 1015.5
20260506114206 17 292 12.9 16.1 0.00 0.00 0.00 80 1015.6
20260506113206 17 289 9.7 12.9 0.00 0.00 0.00 79 1015.5
20260506112706 17 298 9.7 11.3 0.00 0.00 0.00 79 1015.5
20260506112206 17 303 11.3 12.9 0.00 0.00 0.00 79 1015.6
20260506111706 17 305 11.3 12.9 0.00 0.00 0.00 79 1015.7
20260506111206 17 304 11.3 12.9 0.00 0.00 0.00 79 1015.8
20260506110706 17 308 11.3 12.9 0.00 0.00 0.00 79 1015.7
20260506110206 17 302 9.7 9.7 0.00 0.00 0.00 78 1015.9
20260506105705 17 302 9.7 9.7 0.00 0.00 0.00 78 1015.7
20260506104706 17 319 9.7 9.7 0.00 0.00 0.00 79 1015.7
20260506104206 18 331 8.0 9.7 0.00 0.00 0.00 79 1015.7
20260506103706 18 331 8.0 9.7 0.00 0.00 0.00 79 1015.7
20260506103206 18 321 8.0 9.7 0.00 0.00 0.00 79 1015.7
20260506102706 17 321 8.0 11.3 0.00 0.00 0.00 79 1015.7
20260506101705 17 317 8.0 8.0 0.00 0.00 0.00 78 1015.9
20260506101206 18 359 4.8 4.8 0.00 0.00 0.00 77 1015.8
20260506100206 18 359 4.8 4.8 0.00 0.00 0.00 76 1015.9
20260506095706 18 359 8.0 8.0 0.00 0.00 0.00 76 1015.8
20260506095206 18 359 4.8 4.8 0.00 0.00 0.00 76 1015.9
20260506094706 18 359 4.8 4.8 0.00 0.00 0.00 76 1015.9
20260506094206 18 359 3.2 9.7 0.00 0.00 0.00 76 1015.8
20260506093706 18 2 6.4 9.7 0.00 0.00 0.00 76 1015.8
20260506093206 18 2 4.8 8.0 0.00 0.00 0.00 76 1016.0
20260506092706 18 0 6.4 9.7 0.00 0.00 0.00 76 1015.9
20260506092206 18 4 6.4 8.0 0.00 0.00 0.00 76 1015.8
20260506091706 18 5 8.0 9.7 0.00 0.00 0.00 76 1015.9
20260506091205 18 3 8.0 9.7 0.00 0.00 0.00 76 1015.8
20260506090706 18 5 4.8 9.7 0.00 0.00 0.00 76 1016.0
20260506085205 18 31 8.0 9.7 0.00 0.00 0.00 76 1016.2
20260506084206 18 32 8.0 9.7 0.00 0.00 0.00 77 1016.1
20260506083706 18 30 8.0 9.7 0.00 0.00 0.00 77 1016.2
20260506083205 18 26 6.4 9.7 0.00 0.00 0.00 76 1016.3
20260506082706 18 37 4.8 8.0 0.00 0.00 0.00 76 1016.0
20260506082206 18 39 4.8 8.0 0.00 0.00 0.00 75 1016.1
20260506081206 18 51 6.4 9.7 0.00 0.00 0.00 75 1016.3
20260506080706 18 42 8.0 8.0 0.00 0.00 0.00 75 1016.0
20260506080206 18 44 8.0 9.7 0.00 0.00 0.00 75 1015.9
20260506073205 18 57 12.9 16.1 0.00 0.00 0.00 73 1015.9
20260506072706 18 65 12.9 14.5 0.00 0.00 0.00 72 1015.8
20260506072206 18 61 12.9 16.1 0.00 0.00 0.00 72 1016.0
20260506071706 18 53 12.9 14.5 0.00 0.00 0.00 71 1015.8
20260506071206 19 59 12.9 19.3 0.00 0.00 0.00 71 1016.0
20260506070706 19 63 14.5 19.3 0.00 0.00 0.00 71 1015.8
20260506070206 19 63 14.5 19.3 0.00 0.00 0.00 70 1015.7
20260506061706 20 71 11.3 14.5 0.00 0.00 0.00 64 1016.4
20260506061206 20 84 8.0 11.3 0.00 0.00 0.00 63 1016.2
20260506060706 21 74 9.7 11.3 0.00 0.00 0.00 62 1016.2
20260506060205 21 79 8.0 9.7 0.00 0.00 0.00 63 1016.2
20260506051205 20 105 8.0 11.3 0.00 0.00 0.00 65 1016.5
20260506050706 20 120 9.7 11.3 0.00 0.00 0.00 65 1016.7
20260506050206 20 110 9.7 11.3 0.00 0.00 0.00 65 1016.6
20260506044706 20 110 9.7 11.3 0.00 0.00 0.00 64 1017.0
20260506044206 20 117 8.0 11.3 0.00 0.00 0.00 65 1016.9
20260506043705 20 121 11.3 14.5 0.00 0.00 0.00 64 1017.0
20260506043206 20 119 11.3 14.5 0.00 0.00 0.00 64 1016.9
20260506042705 20 125 11.3 14.5 0.00 0.00 0.00 63 1017.0
20260506042205 20 120 9.7 16.1 0.00 0.00 0.00 63 1017.0
20260506041706 21 123 11.3 14.5 0.00 0.00 0.00 61 1017.1
20260506041206 21 119 12.9 14.5 0.00 0.00 0.00 61 1017.1
20260506040706 21 109 9.7 11.3 0.00 0.00 0.00 60 1017.3
20260506040205 21 127 9.7 14.5 0.00 0.00 0.00 60 1017.3
20260506035705 21 132 9.7 12.9 0.00 0.00 0.00 61 1017.1
20260506035205 21 118 11.3 14.5 0.00 0.00 0.00 60 1017.3
20260506034705 21 117 11.3 14.5 0.00 0.00 0.00 60 1017.5
20260506034206 21 116 11.3 16.1 0.00 0.00 0.00 60 1017.5
20260506033705 21 124 12.9 19.3 0.00 0.00 0.00 59 1017.7
20260506032706 21 120 12.9 19.3 0.00 0.00 0.00 59 1017.6
20260506032205 21 120 11.3 16.1 0.00 0.00 0.00 59 1017.8
20260506031705 22 122 14.5 19.3 0.00 0.00 0.00 57 1017.9
20260506031205 22 119 11.3 14.5 0.00 0.00 0.00 56 1018.0
20260506030705 22 142 9.7 16.1 0.00 0.00 0.00 58 1018.0
20260506030205 22 101 8.0 12.9 0.00 0.00 0.00 59 1018.0
20260506025705 21 145 8.0 12.9 0.00 0.00 0.00 61 1018.1
20260506025205 21 133 9.7 16.1 0.00 0.00 0.00 61 1018.3
20260506024705 20 152 11.3 16.1 0.00 0.00 0.00 63 1018.3
20260506024205 20 122 6.4 16.1 0.00 0.00 0.00 63 1018.3
20260506023205 21 124 14.5 19.3 0.00 0.00 0.00 61 1018.5
20260506022705 21 129 14.5 20.9 0.00 0.00 0.00 60 1018.7
20260506022206 21 129 14.5 19.3 0.00 0.00 0.00 58 1018.7
20260506021705 21 123 14.5 19.3 0.00 0.00 0.00 56 1018.8
20260506021205 22 130 12.9 22.5 0.00 0.00 0.00 55 1018.8
20260506020705 22 136 16.1 20.9 0.00 0.00 0.00 55 1019.1
20260506020205 22 142 14.5 20.9 0.00 0.00 0.00 55 1018.9
20260506015705 22 148 9.7 19.3 0.00 0.00 0.00 57 1019.0
20260506015205 22 131 11.3 20.9 0.00 0.00 0.00 57 1019.2
20260506014705 22 134 12.9 19.3 0.00 0.00 0.00 57 1019.2
20260506014205 22 133 14.5 19.3 0.00 0.00 0.00 56 1019.3
20260506013705 22 124 14.5 19.3 0.00 0.00 0.00 55 1019.3
20260506013205 22 131 16.1 19.3 0.00 0.00 0.00 54 1019.5
20260506012705 22 134 9.7 19.3 0.00 0.00 0.00 55 1019.5
20260506012205 22 135 3.2 11.3 0.00 0.00 0.00 56 1019.8
20260506011705 21 108 4.8 8.0 0.00 0.00 0.00 56 1019.8
20260506011205 21 98 4.8 8.0 0.00 0.00 0.00 57 1019.9
20260506010705 21 78 4.8 8.0 0.00 0.00 0.00 59 1019.9
20260506010205 20 75 3.2 8.0 0.00 0.00 0.00 60 1020.1
20260506005705 19 74 4.8 8.0 0.00 0.00 0.00 60 1020.0
20260506005205 19 52 6.4 9.7 0.00 0.00 0.00 59 1020.1
20260506004705 20 43 4.8 8.0 0.00 0.00 0.00 57 1020.2
20260506004205 20 38 4.8 8.0 0.00 0.00 0.00 57 1020.2
20260506003705 20 16 4.8 8.0 0.00 0.00 0.00 56 1020.2
20260506003204 20 40 4.8 9.7 0.00 0.00 0.00 55 1020.1
20260506002205 20 359 1.6 4.8 0.00 0.00 0.00 57 1020.2
20260506001705 20 299 3.2 4.8 0.00 0.00 0.00 57 1020.1
20260506001204 20 349 4.8 8.0 0.00 0.00 0.00 57 1020.2
20260506000705 20 353 3.2 8.0 0.00 0.00 0.00 59 1020.4
20260506000205 19 322 4.8 8.0 0.00 0.00 0.00 59 1020.2
20260505235705 19 335 4.8 9.7 0.00 0.00 0.00 60 1020.5
20260505235205 18 350 1.6 9.7 0.00 0.00 0.00 60 1020.5
20260505234704 18 325 6.4 11.3 0.00 0.00 0.00 61 1020.5
20260505234205 18 322 6.4 11.3 0.00 0.00 0.00 61 1020.5
20260505233704 18 326 4.8 9.7 0.00 0.00 0.00 63 1020.5
20260505232705 18 333 4.8 8.0 0.00 0.00 0.00 64 1020.5
20260505232205 17 322 4.8 8.0 0.00 0.00 0.00 66 1020.8
20260505231205 16 321 4.8 8.0 0.00 0.00 0.00 67 1020.6
20260505230705 16 298 8.0 9.7 0.00 0.00 0.00 67 1020.6
20260505230205 16 310 8.0 9.7 0.00 0.00 0.00 68 1020.4
20260505225704 15 298 8.0 9.7 0.00 0.00 0.00 69 1020.5
20260505225205 15 279 8.0 11.3 0.00 0.00 0.00 69 1020.4
20260505224705 15 290 9.7 11.3 0.00 0.00 0.00 69 1020.6
20260505224205 15 300 9.7 12.9 0.00 0.00 0.00 69 1020.5
20260505223705 15 308 11.3 14.5 0.00 0.00 0.00 69 1020.7
20260505223205 15 315 11.3 14.5 0.00 0.00 0.00 70 1020.8
20260505222704 15 324 9.7 11.3 0.00 0.00 0.00 72 1020.6
20260505222204 14 322 9.7 11.3 0.00 0.00 0.00 73 1020.7
20260505221705 13 319 9.7 11.3 0.00 0.00 0.00 73 1020.6
20260505221204 13 292 9.7 9.7 0.00 0.00 0.00 74 1020.5
20260505220705 13 292 8.0 9.7 0.00 0.00 0.00 75 1020.6
20260505220205 13 287 9.7 11.3 0.00 0.00 0.00 75 1020.7
20260505215204 12 300 9.7 12.9 0.00 0.00 0.00 76 1020.4
20260505214705 12 305 11.3 14.5 0.00 0.00 0.00 76 1020.5
20260505214204 12 311 12.9 14.5 0.00 0.00 0.00 76 1020.5
20260505213704 12 297 11.3 12.9 0.00 0.00 0.00 77 1020.5
20260505213205 12 294 11.3 14.5 0.00 0.00 0.00 77 1020.4
20260505212704 12 295 11.3 14.5 0.00 0.00 0.00 78 1020.6
20260505212204 11 300 12.9 14.5 0.00 0.00 0.00 78 1020.5
20260505211704 11 303 14.5 16.1 0.00 0.00 0.00 78 1020.4
20260505211204 11 309 14.5 19.3 0.00 0.00 0.00 77 1020.6
20260505210704 11 311 14.5 19.3 0.00 0.00 0.00 76 1020.3
20260505210205 11 309 16.1 19.3 0.00 0.00 0.00 75 1020.3
20260505205704 12 312 16.1 19.3 0.00 0.00 0.00 75 1020.3
20260505204705 12 313 14.5 16.1 0.00 0.00 0.00 75 1020.3
20260505204205 12 307 14.5 16.1 0.00 0.00 0.00 75 1020.3
20260505203704 12 308 14.5 16.1 0.00 0.00 0.00 75 1020.2
20260505203204 12 308 14.5 16.1 0.00 0.00 0.00 75 1020.2
20260505202705 12 306 12.9 16.1 0.00 0.00 0.00 76 1020.1
20260505202205 12 315 12.9 14.5 0.00 0.00 0.00 75 1020.1
20260505201704 12 314 12.9 14.5 0.00 0.00 0.00 75 1020.2
20260505201205 12 303 12.9 14.5 0.00 0.00 0.00 75 1020.1
20260505200205 12 326 11.3 14.5 0.00 0.00 0.00 74 1020.0
20260505195205 12 286 11.3 12.9 0.00 0.00 0.00 75 1020.1
20260505194704 12 293 12.9 14.5 0.00 0.00 0.00 75 1019.9
20260505194204 12 299 14.5 16.1 0.00 0.00 0.00 75 1019.7
20260505192705 12 284 12.9 14.5 0.00 0.00 0.00 74 1019.8
20260505192205 12 283 12.9 12.9 0.00 0.00 0.00 74 1019.8
20260505191704 12 286 11.3 14.5 0.00 0.00 0.00 74 1020.1
20260505191205 12 291 12.9 16.1 0.00 0.00 0.00 73 1019.9
20260505190705 12 303 14.5 19.3 0.00 0.00 0.00 73 1019.9
20260505190204 12 317 17.7 20.9 0.00 0.00 0.00 72 1020.0
20260505185704 12 316 16.1 19.3 0.00 0.00 0.00 71 1020.1
20260505185204 12 321 16.1 19.3 0.00 0.00 0.00 71 1020.1
20260505184705 12 315 14.5 16.1 0.00 0.00 0.00 70 1020.0
20260505184204 13 313 14.5 16.1 0.00 0.00 0.00 70 1020.0
20260505183704 12 318 14.5 16.1 0.00 0.00 0.00 69 1019.9
20260505183204 13 317 14.5 16.1 0.00 0.00 0.00 69 1020.1
20260505182705 13 321 14.5 16.1 0.00 0.00 0.00 68 1020.0
20260505181704 14 311 9.7 9.7 0.00 0.00 0.00 66 1019.9
20260505181204 14 306 6.4 8.0 0.00 0.00 0.00 66 1020.0
20260505180704 15 241 8.0 9.7 0.00 0.00 0.00 66 1019.8